Tracking 35331 objects as of 14-Sep-2026
HD Live streaming from Space Station
objects crossing your sky now

OBJECT A

Track OBJECT A now!
10-day predictions


NORAD ID: 52716
Int'l Code: 2022-056A
Launch date: May 20, 2022
Source: People's Republic of China (PRC)
Launch site: Jiuquan Satellite Launch Center, China (JSC)

Note: This is a ROCKET BODY
Your satellite tracking list
Your tracking list is empty




NASA's NSSDC Master Catalog

Two Line Element Set (TLE):
1 52716U 22056A   26256.92200999  .00000082  00000-0  39896-4 0  9996
2 52716  86.0099 344.5073 0020756 110.1588 250.1825 14.04424593221346
Source of the keplerian elements: AFSPC